Flag for Switzerland Weather past 2 weeks in Yverdon-les-Bains, Vaud, Switzerland

Now
74 °F

Mild.


Feels Like: 77 °F
Forecast: 60 / 69 °F
Wind: 3 mph from Southwest

Location: Payerne

Current Time: Sep 1, 2015 at 12:30:09 AM

Latest Report: Aug 31, 2015 at 10:00 PM


Visibility: N/A

Pressure: 29.88 "Hg

Humidity: 55%

Dew point: 57 °F

Location of Yverdon-les-BainsLocation

Historic Weather in Yverdon-les-Bains — Graph

°F

Yverdon-les-Bains temperature yesterday

Maximum temperature yesterday: 87 °F (at 5:00 PM)
Minimum temperature yesterday: 62 °F (at 7:00 AM)
Average temperature yesterday: 75 °F

Past Weeks' High & Low Weather Summary

 TemperatureHumidityPressure
High87 °F (Aug 31, 5:00 PM)98% (Aug 20, 7:00 AM)30.26 "Hg (Aug 20, 7:00 AM)
Low48 °F (Aug 26, 6:00 AM)31% (Aug 31, 5:00 PM)29.72 "Hg (Aug 24, 7:00 AM)
Average66 °F71%30.02 "Hg
* Reported Aug 16 10:00 PM — Aug 31 10:00 PM, Yverdon-les-Bains, Weather by CustomWeather, © 2015

Note: Actual official high and low records may vary slightly from our data, if they occured in-between our weather recording intervals... More about our weather records

Advertising

Yverdon-les-Bains weather history for previous 24 hours

 ConditionsComfort  
Time TempWeatherWind HumidityBarometerVisibility
10:00 PM
Mon, Aug 31
74 °FMild.3 mph55%29.88 "HgN/A
9:00 PM76 °FMild.5 mph50%29.89 "HgN/A
8:00 PM80 °FPassing clouds.10 mph42%29.87 "Hg11 mi
7:00 PM83 °FPleasantly warm.9 mph37%29.87 "HgN/A
6:00 PM85 °FPleasantly warm.10 mph32%29.86 "HgN/A
5:00 PM87 °FPleasantly warm.13 mph31%29.86 "HgN/A
4:00 PM86 °FPleasantly warm.12 mph33%29.89 "HgN/A
3:00 PM86 °FPleasantly warm.12 mph32%29.90 "HgN/A
2:00 PM83 °FPassing clouds.6 mph49%29.93 "Hg22 mi
1:00 PM80 °FWarm.5 mph51%29.96 "HgN/A
12:00 PM77 °FWarm.3 mph55%29.98 "HgN/A
11:00 AM77 °FPassing clouds.2 mph56%29.99 "Hg19 mi
10:00 AM73 °FMild.1 mph69%30.01 "HgN/A
9:00 AM68 °FMild.No wind77%30.03 "HgN/A
8:00 AM63 °FPassing clouds.No wind88%30.05 "Hg17 mi
7:00 AM62 °FCool.No wind88%30.05 "HgN/A
6:00 AM64 °FMild.1 mph83%30.04 "HgN/A
5:00 AM67 °FMild.2 mph74%30.03 "HgN/A
4:00 AM67 °FMild.5 mph72%30.03 "HgN/A
3:00 AM68 °FMild.6 mph70%30.03 "HgN/A
2:00 AM66 °FClear.1 mph83%30.04 "Hg19 mi
1:00 AM70 °FMild.5 mph71%30.03 "HgN/A
12:00 AM72 °FMild.5 mph70%30.04 "HgN/A
Weather by CustomWeather, © 2015

See weather overviewHow to use our weather pages